This is the latest recevied weather packets stored in our database for station/object M0JUI-1. If no packets are shown the sender has not sent any weather packets the latest 10 day(s).
| Time | Temp. | Humidity | Pressure | Rain* | Wind** | Luminosity | Snow |
|---|---|---|---|---|---|---|---|
| 1778281060 | 11.11° C | 12% | 1019 hPa | 0 mm | - | 0 W/m² | - |
| 1778280759 | 11.11° C | 14% | 1019 hPa | 0 mm | - | 0 W/m² | - |
| 1778280459 | 11.67° C | 18% | 1019 hPa | 0 mm | - | 0 W/m² | - |
| 1778280153 | 11.67° C | 21% | 1019 hPa | 0 mm | - | 0 W/m² | - |
| 1778279847 | 11.67° C | 21% | 1018.9 hPa | 0 mm | - | 0 W/m² | - |
| 1778279548 | 11.67° C | 21% | 1019 hPa | 0 mm | - | 0 W/m² | - |
| 1778279248 | 11.67° C | 21% | 1019.1 hPa | 0 mm | - | 0 W/m² | - |
| 1778278948 | 11.67° C | 22% | 1018.9 hPa | 0 mm | - | 0 W/m² | - |
| 1778278647 | 11.67° C | 22% | 1019.1 hPa | 0 mm | - | 0 W/m² | - |
| 1778278347 | 11.67° C | 22% | 1018.8 hPa | 0 mm | - | 0 W/m² | - |
| 1778278048 | 11.67° C | 21% | 1018.8 hPa | 0 mm | - | 0 W/m² | - |
| 1778277747 | 11.67° C | 21% | 1018.8 hPa | 0 mm | - | 0 W/m² | - |
| 1778277448 | 11.67° C | 20% | 1018.7 hPa | 0 mm | - | 0 W/m² | - |
| 1778277147 | 11.67° C | 19% | 1019 hPa | 0 mm | - | 0 W/m² | - |
| 1778276847 | 11.67° C | 18% | 1018.9 hPa | 0 mm | - | 0 W/m² | - |
| 1778276548 | 11.11° C | 14% | 1018.8 hPa | 0 mm | - | 0 W/m² | - |
| 1778276248 | 11.11° C | 11% | 1018.9 hPa | 0 mm | - | 0 W/m² | - |
| 1778275947 | 11.11° C | 9% | 1018.7 hPa | 0 mm | - | 0 W/m² | - |
| 1778275647 | 11.11° C | 7% | 1018.8 hPa | 0 mm | - | 0 W/m² | - |
| 1778275347 | 11.11° C | 8% | 1018.6 hPa | 0 mm | - | 0 W/m² | - |
| 1778275047 | 11.11° C | 8% | 1018.6 hPa | 0 mm | - | 0 W/m² | - |
| 1778274747 | 11.11° C | 8% | 1018.6 hPa | 0 mm | - | 0 W/m² | - |
| 1778274448 | 11.11° C | 9% | 1018.4 hPa | 0 mm | - | 0 W/m² | - |
| 1778274147 | 11.11° C | 10% | 1018.5 hPa | 0 mm | - | 0 W/m² | - |
| 1778273852 | 11.11° C | 9% | 1018.6 hPa | 0 mm | - | 0 W/m² | - |
* Rain latest hour (hover to see other rain measurements)
** Current wind speed in m/s (hover to see current wind gust speed)